Cloud_Cover
33 5 5 49 62 26 8 26 100 10 41 26 16 3 0 0 0 3 0 28 4 7 45 0 0 0 0 0 0 0 0 0 0 0 0 0 0 0 0 0 0 0 0 0 0 0 0 0 0
5 5 5 63 58 40 20 49 97 53 96 5 75 99 20 0 0 0 0 3 0 1 8 7 0 0 0 0 0 0 0 0 0 0 0 0 0 0 0 0 0 0 0 0 0 0 0 0 0
57 5 9 14 65 100 20 6 100 52 12 75 18 4 6 0 0 5 0 5 0 0 0 11 0 0 0 0 0 0 0 0 0 0 0 0 0 0 0 0 0 0 0 0 0 0 0 0 0
56 16 5 6 88 99 5 67 71 99 31 63 99 5 5 3 0 4 5 0 0 0 0 8 0 0 0 0 0 0 0 0 0 0 0 0 0 0 0 0 0 0 0 0 0 0 0 0 0
52 10 6 5 82 100 70 72 6 98 100 13 48 5 2 5 1 4 25 0 0 0 0 12 1 0 0 0 2 6 3 0 0 3 5 3 0 0 0 0 0 0 0 0 0 0 0 0 0
10 32 5 38 100 99 100 96 13 100 100 79 21 6 4 5 14 0 12 5 0 0 0 1 0 1 0 1 5 10 13 5 1 1 0 0 0 0 0 0 0 0 0 0 0 0 0 0 0
63 53 31 90 100 98 100 100 84 94 100 97 34 10 70 2 5 4 3 1 4 0 0 15 21 2 4 5 12 5 5 5 4 4 0 0 0 0 0 0 0 0 0 0 0 0 0 0 1
100 21 22 37 100 100 100 100 100 67 62 57 75 48 31 95 5 69 6 5 5 4 14 100 100 79 53 41 23 6 3 0 0 0 0 0 0 0 0 0 0 0 0 3 0 0 0 0 5
100 5 24 96 100 100 100 100 58 5 5 5 10 40 74 5 7 81 5 5 5 98 47 62 83 99 58 49 57 32 20 2 2 4 5 5 3 1 2 0 0 2 2 0 1 4 5 4 0
100 100 100 100 100 94 100 25 5 5 1 29 8 59 53 6 1 6 14 6 5 15 100 50 30 49 23 32 60 57 71 96 44 27 27 5 5 5 5 5 5 5 5 3 4 4 4 1 4
100 100 100 100 100 99 86 90 6 5 2 25 100 32 99 8 41 5 85 43 53 5 22 99 99 37 31 58 13 16 14 38 67 67 83 83 97 27 64 84 43 5 94 32 5 7 5 5 5
100 100 100 100 100 100 100 100 99 100 99 100 94 100 100 92 21 34 100 100 100 51 46 74 100 94 8 99 58 98 100 92 59 57 74 99 85 100 98 99 74 100 84 100 100 87 57 7 5
100 100 100 100 100 100 100 100 100 100 100 100 82 100 100 100 30 5 29 100 100 58 5 16 100 100 98 46 100 100 88 96 53 88 99 100 99 78 100 99 100 75 92 86 98 97 100 100 81
100 100 100 100 100 100 100 100 100 99 97 100 100 98 99 100 100 100 98 98 100 19 4 0 6 40 88 98 90 98 73 99 88 100 88 100 100 99 100 100 100 94 87 90 78 41 82 85 68
97 64 100 100 100 100 100 100 100 100 100 100 100 100 100 100 100 100 100 100 100 100 82 5 2 11 70 100 100 100 100 53 96 100 99 100 100 100 79 97 100 100 88 99 100 100 100 100 99
15 46 94 100 100 100 100 100 100 100 72 82 95 100 100 100 100 100 100 100 100 74 12 97 23 55 94 100 100 100 100 100 100 100 100 100 100 100 100 100 100 100 97 100 100 100 100 94 100
5 5 5 67 78 100 100 100 100 100 100 100 79 80 88 100 100 60 100 92 3 100 100 95 68 32 2 14 32 0 68 100 99 79 81 100 100 72 100 87 33 98 99 100 100 100 100 100 100
89 30 5 8 5 3 94 100 100 100 100 80 49 100 100 100 100 100 100 87 100 68 94 100 15 73 99 97 82 87 95 99 100 89 99 100 87 100 100 70 100 100 100 100 100 44 99 95 97
5 15 37 8 5 0 0 5 100 100 100 100 100 100 100 100 100 100 100 100 100 100 100 100 100 24 1 11 33 100 100 100 100 100 100 100 100 95 59 88 4 4 2 0 0 0 0 57 73
0 0 5 5 54 5 2 4 5 4 1 24 95 100 100 100 100 100 100 100 100 100 100 100 100 100 100 100 100 75 1 26 7 57 37 37 48 4 0 0 0 0 31 93 22 100 100 12 50
0 0 0 1 4 5 5 5 5 5 1 0 0 4 36 88 100 18 24 76 87 100 100 100 46 100 100 100 40 1 1 0 0 0 0 0 0 0 1 100 97 35 100 100 100 100 100 100 100
0 0 0 0 0 2 19 40 41 55 61 8 7 3 0 0 0 1 6 5 3 0 6 7 42 54 62 5 5 0 0 0 0 0 1 0 0 0 2 4 9 94 100 100 100 100 100 100 100
5 0 0 0 0 0 0 0 4 5 5 5 5 5 5 7 2 0 0 0 0 0 0 0 0 0 0 0 0 0 0 0 0 0 0 0 0 0 0 0 100 100 100 100 100 100 100 100 100
100 100 100 88 70 28 10 1 0 1 0 7 91 74 100 100 53 9 4 0 0 0 0 0 0 0 0 0 0 0 0 0 0 0 0 0 0 0 0 0 100 100 100 100 100 100 100 100 100
90 99 89 80 96 100 100 98 98 100 100 100 99 23 23 98 98 76 5 0 0 0 0 0 0 0 0 0 0 0 0 0 0 0 0 0 0 0 0 4 36 94 100 100 79 100 100 100 100
100 68 51 51 93 16 12 4 96 100 100 100 100 89 83 100 92 84 6 5 0 0 0 0 0 0 0 0 0 0 0 0 0 0 0 0 0 0 0 0 0 25 95 17 62 100 100 100 100
100 100 100 72 23 14 78 100 100 100 46 98 100 100 99 90 83 72 7 5 0 1 0 0 0 0 0 0 0 0 0 0 0 0 0 0 0 0 0 0 0 10 7 37 93 100 100 100 100
100 100 100 97 65 29 19 93 100 100 90 78 100 100 91 87 78 16 5 5 5 2 0 0 0 0 0 0 0 0 0 0 0 0 0 0 0 0 0 0 0 60 83 3 3 100 100 100 100
100 100 100 100 64 13 5 5 12 99 95 45 75 100 100 96 98 72 68 5 5 1 1 64 0 0 0 0 0 0 0 0 0 0 0 0 0 0 0 0 0 2 69 96 100 75 100 100 100
94 100 100 93 74 38 36 4 86 100 18 73 83 100 100 100 99 35 14 5 5 5 85 100 30 5 5 3 5 5 5 1 0 0 0 0 0 0 0 0 0 0 0 19 9 45 100 100 100